Wetbulb
71.75 71.47 72.29 71.66 71.37 70.79 68.56 66.73 65.66 61.91 62.76 67.29 67.77 69.78 69.90 70.31 71.73 71.28 69.83 70.09 68.83 67.88 66.50 66.06 66.57 67.44 68.11 68.73 68.87 69.19 69.36 69.71 69.74 69.81 69.86 70.36 71.23 72.24
73.47 72.85 72.16 72.13 71.24 72.81 69.88 69.95 68.30 65.47 63.02 67.02 67.71 70.30 71.08 71.64 72.55 70.52 70.29 71.47 70.07 67.90 66.86 66.04 66.07 66.56 67.11 67.65 67.49 67.47 67.87 67.89 68.14 68.51 68.88 68.92 69.49 70.24
73.65 72.46 72.79 72.91 72.25 72.39 73.73 72.19 69.16 68.77 65.74 66.88 69.93 70.61 70.54 71.08 72.04 71.37 71.66 71.54 71.21 68.02 67.28 66.38 65.78 65.82 66.24 66.58 66.72 66.42 66.37 66.25 66.44 67.20 67.83 68.08 68.51 69.03
73.21 72.74 72.74 74.84 72.84 72.31 73.10 71.95 72.07 72.39 69.99 67.24 69.18 69.64 70.49 71.87 71.78 71.94 73.89 75.29 72.69 72.04 68.24 66.45 65.30 64.80 64.62 64.56 64.89 64.54 63.68 63.90 64.40 64.94 65.71 66.60 67.23 67.81
73.48 73.53 73.14 72.61 72.90 73.65 72.47 72.17 71.69 71.96 72.12 70.48 69.78 71.77 72.74 72.90 72.12 71.82 73.73 74.28 74.58 72.52 68.70 67.47 66.74 65.35 64.25 62.79 62.31 61.67 60.29 59.67 60.59 61.59 62.53 63.44 64.82 66.03
74.55 74.15 74.18 74.14 73.39 73.46 73.86 73.34 73.09 72.51 71.85 71.09 70.69 70.49 70.71 72.46 72.12 71.63 70.56 71.91 72.17 75.16 73.17 70.33 70.69 69.77 66.05 63.23 62.69 62.31 59.92 58.21 57.65 58.11 58.89 59.48 60.67 62.47
73.32 74.18 74.43 74.23 73.39 73.05 74.90 73.99 74.04 73.05 72.57 72.05 71.12 70.89 70.09 70.35 70.01 71.62 70.34 69.97 71.00 71.87 71.48 75.47 75.35 75.95 75.03 70.10 67.83 66.59 63.09 61.17 59.10 57.75 57.08 56.70 56.84 57.92
73.96 73.64 74.60 73.03 72.31 69.67 69.41 70.45 73.73 73.60 72.60 71.94 71.30 70.88 70.33 70.33 71.26 70.46 69.86 70.29 68.80 73.28 74.86 74.60 74.82 74.83 75.72 75.88 69.79 66.23 63.78 61.95 60.58 59.18 58.03 57.22 56.70 56.54
74.49 74.27 74.23 75.67 72.51 74.30 69.75 67.54 67.47 66.81 68.53 72.07 70.61 70.94 70.78 70.96 71.40 70.97 71.46 71.69 71.81 74.40 74.46 72.90 74.06 73.43 74.93 75.72 69.40 64.63 61.03 59.91 58.50 57.68 57.57 57.07 56.20 55.71
74.60 74.88 74.38 74.18 73.48 72.96 73.45 73.56 72.32 71.65 71.03 70.49 70.33 72.33 72.94 73.46 73.24 73.61 73.40 73.54 74.52 72.86 74.04 70.99 72.89 73.05 74.70 73.95 66.64 62.44 59.69 58.61 58.39 57.60 56.35 55.26 52.90 52.83
73.60 74.24 74.52 74.27 70.40 66.82 72.07 72.41 72.91 74.15 71.39 66.13 66.98 66.77 66.33 65.53 68.55 71.19 71.56 72.36 69.49 71.82 73.85 72.46 72.40 72.11 72.96 70.86 66.42 62.52 60.08 58.05 57.02 56.25 56.66 54.32 53.09 52.67
71.86 72.00 67.00 71.88 67.63 64.82 71.70 72.20 70.70 71.50 71.67 72.51 72.66 68.10 65.20 67.43 63.70 68.23 71.57 69.05 69.62 71.16 73.28 72.31 72.56 71.53 65.91 67.52 64.95 64.90 63.19 58.06 56.34 55.10 54.62 53.74 51.77 55.35
71.12 71.63 73.04 63.27 60.08 59.83 61.23 72.08 72.07 72.97 71.14 73.03 73.64 73.25 73.28 75.15 75.33 71.57 71.58 72.24 71.18 72.24 73.08 73.40 71.55 67.77 65.19 63.35 63.34 63.02 62.20 59.08 58.48 57.41 53.99 52.28 50.96 51.81
72.01 72.84 72.35 64.53 60.52 59.70 60.85 62.40 61.14 63.11 71.91 71.57 71.21 71.28 71.61 72.61 74.78 75.05 74.44 74.82 75.87 75.10 75.26 73.27 70.83 65.78 62.48 60.53 59.93 61.19 60.41 57.82 56.76 55.49 54.92 53.78 52.54 51.91
74.19 70.91 65.29 61.74 58.27 59.41 59.17 60.45 59.75 66.45 69.91 70.08 70.63 71.53 72.79 74.30 73.11 72.99 74.62 75.52 74.45 74.32 75.39 73.88 70.67 65.71 63.12 61.17 59.80 58.40 55.96 55.92 55.89 54.01 53.50 53.82 53.02 53.08
67.92 68.00 66.22 65.57 64.86 67.02 63.35 59.51 65.42 68.32 69.44 70.56 71.62 72.50 71.72 71.44 71.40 72.33 72.76 72.24 71.13 67.92 70.05 71.14 67.14 64.86 62.87 61.16 59.71 56.96 54.95 53.56 53.34 52.27 51.49 51.66 52.96 53.43
68.87 72.09 69.41 69.09 69.86 70.07 71.71 67.79 67.27 70.81 71.87 72.71 73.01 72.15 71.38 71.74 71.38 72.51 72.78 71.29 67.48 64.62 63.77 66.92 62.68 60.98 59.35 60.60 57.24 55.31 53.66 52.45 51.98 50.86 50.04 49.72 52.18 52.41
67.97 71.34 71.29 71.77 71.74 71.07 71.51 73.50 72.08 71.09 73.60 72.67 71.77 71.38 71.07 70.50 70.79 71.30 70.44 64.45 63.13 63.26 63.99 62.88 62.97 61.27 58.12 56.85 58.46 55.21 52.95 52.13 51.62 50.49 49.67 48.04 48.77 52.86
70.56 71.70 71.62 71.84 71.89 71.50 71.50 72.55 72.52 72.67 72.12 71.56 70.12 69.91 70.59 70.99 69.15 65.39 65.57 64.38 63.99 62.88 62.54 62.47 61.79 61.16 58.36 56.68 56.10 54.14 53.39 52.44 51.46 49.66 49.23 48.07 47.26 48.58
70.78 70.63 71.05 70.00 69.78 70.25 70.79 70.36 70.02 70.27 70.23 69.75 67.88 66.87 65.84 66.71 65.31 64.53 62.77 61.94 60.96 60.56 60.18 61.30 60.95 59.75 58.51 57.40 56.72 54.73 49.20 52.77 51.78 50.00 48.45 49.24 50.31 53.04
69.10 67.79 68.08 67.90 67.74 67.54 67.26 67.04 66.86 66.43 66.80 65.73 64.62 64.35 64.82 63.42 62.99 62.83 61.67 57.34 57.98 60.14 59.02 59.59 61.34 59.79 60.38 60.87 57.38 55.00 52.90 50.48 53.26 51.75 49.74 48.10 46.58 46.33
67.77 67.16 66.80 66.80 66.88 66.77 66.52 66.05 65.03 65.31 65.19 64.74 63.99 63.51 62.43 62.61 62.63 62.10 60.92 60.56 60.51 61.71 61.99 61.70 62.19 61.24 60.04 59.75 58.25 56.76 54.76 51.79 51.46 51.99 53.44 53.03 49.72 46.69
66.98 66.89 65.80 65.74 65.63 65.53 64.45 63.98 63.95 63.59 63.26 62.43 61.35 61.16 61.50 60.54 61.16 60.83 60.73 60.42 59.60 58.95 58.24 58.72 60.22 60.52 59.80 59.87 58.65 57.16 58.07 55.61 52.70 52.20 51.12 52.91 52.74 51.82
MSLP
1020.98 1021.02 1021.00 1020.89 1020.91 1020.94 1020.72 1020.86 1021.46 1022.05 1021.80 1020.78 1020.49 1019.69 1019.56 1019.48 1019.50 1019.67 1019.72 1019.45 1019.42 1019.26 1019.40 1019.26 1019.06 1018.72 1019.17 1019.21 1019.23 1019.23 1019.26 1019.23 1019.27 1019.24 1019.27 1019.40 1019.53 1019.52
1020.75 1020.84 1020.89 1020.80 1020.87 1020.88 1020.79 1020.52 1020.93 1021.45 1021.87 1021.02 1020.41 1020.04 1019.56 1019.44 1019.26 1019.32 1019.02 1018.76 1018.80 1018.74 1018.71 1018.54 1018.37 1017.93 1018.17 1018.64 1018.64 1018.40 1018.24 1018.29 1018.34 1018.34 1018.44 1018.52 1018.80 1018.94
1020.45 1020.71 1020.79 1020.68 1020.72 1020.73 1020.78 1020.76 1020.88 1021.01 1021.34 1020.80 1020.30 1019.82 1019.62 1019.49 1019.06 1018.90 1018.58 1018.38 1018.26 1018.06 1017.84 1017.68 1017.50 1017.42 1017.60 1017.52 1017.29 1017.19 1017.36 1017.46 1017.39 1017.48 1017.45 1017.37 1017.48 1017.60
1020.21 1020.41 1020.49 1020.59 1020.63 1020.58 1020.74 1020.76 1020.79 1020.68 1020.96 1021.03 1020.50 1020.01 1019.60 1019.11 1018.66 1018.61 1018.09 1017.80 1017.62 1017.19 1017.00 1016.98 1017.08 1016.96 1016.57 1016.56 1016.24 1016.44 1016.45 1016.53 1016.42 1016.34 1016.25 1016.25 1016.22 1016.17
1019.56 1019.86 1019.99 1020.18 1020.50 1020.50 1020.45 1020.63 1020.60 1020.47 1020.48 1020.58 1020.45 1019.93 1019.45 1018.93 1018.69 1018.43 1017.97 1017.50 1017.16 1016.87 1016.89 1016.58 1016.34 1016.09 1016.02 1015.98 1015.98 1015.84 1015.66 1015.94 1015.67 1015.67 1015.78 1015.66 1015.83 1015.59
1019.11 1019.24 1019.36 1019.57 1019.79 1020.00 1020.19 1020.23 1020.23 1020.33 1020.28 1020.27 1020.19 1019.98 1019.54 1018.78 1018.74 1018.72 1018.20 1017.77 1017.47 1016.77 1016.33 1016.00 1015.75 1015.53 1015.35 1015.28 1015.34 1015.27 1015.29 1015.35 1015.33 1015.16 1015.01 1014.87 1014.79 1014.63
1018.57 1018.67 1018.80 1018.86 1019.02 1019.21 1019.48 1019.65 1019.83 1020.03 1019.98 1020.00 1020.02 1019.80 1019.54 1019.18 1018.96 1018.56 1018.36 1018.02 1017.51 1016.82 1016.56 1016.18 1015.96 1015.39 1015.10 1014.90 1014.94 1014.90 1014.72 1014.64 1014.69 1014.90 1014.89 1014.72 1014.53 1014.34
1018.03 1018.09 1018.18 1018.36 1018.48 1018.63 1018.75 1018.82 1018.90 1019.28 1019.26 1019.40 1019.44 1019.47 1019.04 1018.85 1018.59 1018.48 1018.26 1018.07 1017.71 1016.55 1016.49 1016.03 1015.80 1015.51 1014.96 1014.79 1014.59 1014.56 1014.64 1014.81 1014.78 1014.83 1014.65 1014.34 1014.06 1013.90
1017.31 1017.50 1017.67 1017.77 1017.96 1018.12 1018.15 1018.17 1018.15 1018.14 1018.20 1018.34 1018.60 1018.39 1018.35 1018.10 1017.91 1017.92 1017.77 1017.58 1017.27 1016.40 1016.33 1016.03 1015.70 1015.52 1014.94 1014.60 1014.44 1014.59 1014.75 1014.84 1014.69 1014.52 1014.40 1014.30 1014.15 1013.84
1016.48 1016.69 1016.92 1017.11 1017.27 1017.46 1017.56 1017.56 1017.42 1017.22 1017.08 1017.24 1017.49 1017.30 1017.22 1017.06 1017.18 1017.00 1017.04 1016.90 1016.54 1015.98 1015.78 1015.88 1015.41 1015.39 1014.85 1014.40 1014.67 1014.76 1014.83 1014.79 1014.67 1014.56 1014.48 1014.15 1013.87 1013.39
1015.63 1015.81 1016.05 1016.26 1016.40 1016.72 1017.00 1017.11 1016.90 1016.45 1016.04 1016.27 1016.33 1016.31 1016.32 1016.39 1016.42 1016.88 1016.81 1016.58 1016.24 1015.82 1015.44 1015.58 1015.35 1015.27 1014.88 1014.94 1014.74 1014.59 1014.80 1014.93 1014.81 1014.84 1014.78 1014.50 1013.94 1013.22
1014.91 1015.00 1015.15 1015.36 1015.65 1015.94 1016.24 1016.28 1016.30 1015.80 1015.70 1015.66 1016.00 1015.94 1016.00 1015.94 1015.96 1016.38 1016.14 1016.35 1016.07 1015.66 1015.11 1015.31 1015.31 1015.36 1015.50 1015.18 1014.97 1014.90 1014.98 1015.09 1014.91 1015.02 1014.99 1014.74 1014.16 1013.51
1013.99 1014.07 1014.28 1014.56 1014.89 1015.08 1015.21 1015.48 1015.32 1015.08 1015.29 1015.47 1015.58 1015.50 1015.23 1015.13 1015.04 1015.12 1015.16 1015.39 1015.40 1015.26 1014.83 1015.15 1015.28 1015.58 1015.79 1015.90 1015.70 1015.49 1015.35 1015.38 1015.45 1015.21 1014.99 1014.54 1014.33 1014.20
1012.78 1012.90 1013.27 1013.64 1013.95 1014.10 1014.22 1014.41 1014.45 1014.86 1015.10 1015.29 1015.38 1015.24 1015.11 1014.85 1014.63 1014.49 1014.44 1014.50 1014.45 1014.52 1014.29 1014.51 1015.02 1015.46 1015.96 1016.32 1016.26 1015.78 1015.64 1015.74 1015.85 1015.92 1015.55 1015.00 1014.45 1014.02
1011.99 1012.23 1012.52 1012.78 1013.10 1013.36 1013.46 1013.55 1013.90 1014.50 1014.74 1015.00 1014.82 1014.73 1014.57 1014.41 1014.26 1014.21 1013.88 1013.79 1013.81 1013.57 1013.59 1013.73 1014.33 1014.96 1015.56 1016.08 1016.34 1016.45 1016.40 1016.22 1016.19 1016.37 1016.01 1015.52 1015.24 1014.53
1011.38 1011.76 1012.02 1012.36 1012.64 1012.77 1013.06 1013.21 1013.58 1013.60 1013.68 1013.90 1014.15 1014.22 1014.30 1014.27 1014.12 1014.05 1014.09 1013.96 1014.10 1013.76 1013.20 1013.19 1013.79 1014.54 1015.49 1015.86 1016.12 1016.70 1016.94 1017.04 1016.74 1016.58 1016.30 1015.81 1015.33 1014.90
1010.62 1011.32 1012.09 1012.36 1012.60 1012.68 1012.55 1012.83 1013.07 1013.14 1013.31 1013.42 1013.68 1013.89 1014.07 1014.15 1014.09 1013.85 1013.77 1013.80 1013.96 1013.96 1013.91 1014.02 1014.61 1014.92 1015.46 1015.73 1016.28 1016.54 1016.87 1017.05 1016.98 1016.74 1016.27 1016.00 1015.73 1015.24
1010.36 1010.78 1011.14 1011.41 1011.63 1011.78 1011.96 1012.14 1012.24 1012.50 1012.61 1012.93 1013.36 1013.65 1013.85 1013.79 1013.81 1013.54 1013.39 1013.68 1013.92 1014.10 1014.20 1014.31 1015.02 1015.65 1015.99 1016.03 1015.81 1016.28 1016.66 1016.91 1016.94 1016.78 1016.60 1016.44 1015.94 1015.57
1009.37 1009.74 1010.23 1010.64 1010.90 1011.06 1011.28 1011.45 1011.66 1011.74 1012.04 1012.59 1012.97 1013.19 1013.38 1013.32 1013.46 1013.53 1013.44 1013.55 1013.96 1014.31 1014.43 1014.28 1014.21 1014.50 1015.54 1016.08 1016.05 1016.01 1016.29 1016.54 1016.63 1016.72 1016.69 1016.75 1016.53 1016.03
1008.92 1009.34 1009.87 1010.54 1010.96 1011.26 1011.49 1011.35 1011.73 1011.92 1012.13 1012.44 1012.98 1013.16 1013.31 1013.36 1013.47 1013.59 1013.89 1014.24 1014.41 1014.44 1014.40 1014.33 1014.23 1014.12 1014.54 1015.08 1015.60 1015.78 1015.95 1016.06 1016.22 1016.38 1016.52 1016.44 1016.31 1015.94
1008.86 1009.48 1009.99 1010.71 1011.36 1011.29 1012.53 1012.26 1012.40 1012.62 1012.56 1012.64 1012.97 1013.27 1013.42 1013.59 1013.74 1013.93 1014.22 1014.46 1014.61 1014.70 1014.69 1014.23 1014.00 1013.87 1013.99 1014.16 1014.76 1015.29 1015.30 1015.30 1015.27 1015.57 1015.86 1016.17 1016.10 1015.96
1007.92 1008.10 1008.57 1009.11 1009.87 1009.34 1011.84 1012.46 1013.92 1013.77 1013.45 1013.24 1013.47 1013.58 1013.50 1013.68 1014.00 1013.96 1013.98 1014.33 1014.54 1014.54 1014.61 1014.04 1013.63 1013.80 1014.01 1014.08 1014.35 1014.59 1014.70 1014.82 1014.80 1014.88 1014.93 1014.94 1015.18 1015.36
1007.56 1007.86 1008.53 1008.71 1008.47 1008.52 1007.62 1010.57 1012.98 1014.08 1013.58 1013.23 1013.64 1013.55 1013.51 1013.84 1013.79 1013.99 1014.03 1014.19 1014.48 1014.56 1014.64 1014.42 1013.86 1013.76 1013.91 1013.82 1013.76 1013.90 1014.02 1014.26 1014.59 1014.75 1014.48 1014.16 1014.44 1014.63
Wind_Speed
4 4 2 3 3 3 1 3 5 1 3 4 2 3 4 3 4 5 6 12 17 17 16 17 19 20 18 18 17 18 18 18 18 18 18 18 18 19
4 5 4 3 3 2 3 1 2 4 2 3 3 2 1 2 5 7 10 14 16 17 17 18 20 22 19 17 17 21 20 21 21 21 20 21 19 19
5 6 7 6 4 2 2 2 2 2 3 4 3 4 2 4 5 5 6 6 5 14 16 18 20 19 16 17 21 21 21 21 23 21 23 23 22 22
7 6 6 5 7 4 2 4 3 2 3 4 3 3 3 5 6 7 8 7 6 11 15 15 15 17 18 17 22 20 20 19 22 23 23 24 23 25
7 7 7 6 5 4 4 4 3 2 2 2 3 2 4 4 4 3 5 6 5 10 12 15 16 17 15 16 17 18 19 15 19 20 20 21 21 24
7 7 7 7 7 7 6 6 4 4 3 3 3 4 4 4 1 3 4 2 3 5 7 8 9 7 10 11 13 15 14 15 16 17 19 20 20 24
7 7 7 8 11 10 5 6 6 5 4 4 4 2 3 3 3 3 3 4 4 4 3 3 5 7 5 5 8 11 12 13 13 12 14 15 17 19
10 8 7 9 11 12 13 11 9 6 5 3 3 4 5 3 3 3 3 3 3 4 2 8 3 4 6 4 7 5 9 10 9 8 10 12 14 14
11 10 8 8 9 7 10 15 14 13 12 7 7 9 8 6 4 4 5 4 5 7 2 8 2 4 4 4 7 10 10 11 11 8 4 7 9 13
10 11 11 10 8 8 7 8 8 9 10 8 10 12 9 9 8 9 7 6 5 5 3 4 1 3 3 4 9 10 10 11 14 15 15 16 16 15
11 11 12 11 11 13 7 7 7 7 8 14 13 14 15 14 11 2 4 6 6 3 2 2 2 2 3 2 2 10 13 12 12 13 16 16 21 17
10 8 14 11 13 16 13 12 10 12 6 6 4 7 11 10 15 9 7 5 3 3 2 2 1 2 3 2 3 4 4 10 10 12 13 15 17 11
10 10 9 15 16 16 17 12 12 11 7 6 5 5 4 5 4 6 7 4 3 5 4 1 2 1 0 3 2 2 4 5 5 9 14 16 15 16
12 10 10 16 19 21 15 17 16 6 3 4 4 4 4 5 4 3 4 5 5 8 6 5 2 3 3 2 3 3 2 4 5 7 8 11 15 15
11 11 11 13 12 11 17 16 10 7 7 5 6 5 5 3 3 3 5 5 5 5 6 5 4 4 3 3 2 3 5 3 6 6 7 7 9 10
11 6 8 9 8 5 3 4 7 7 8 7 5 3 2 1 3 2 3 2 2 4 4 3 7 5 3 2 3 2 1 3 4 4 4 4 7 9
11 9 5 4 4 4 4 4 4 4 5 4 3 3 2 3 4 3 3 3 3 2 1 2 7 7 5 4 3 2 2 1 2 4 3 4 6 10
6 8 9 9 9 8 6 7 6 7 6 4 3 3 4 4 4 3 3 3 2 1 2 2 3 2 2 3 4 3 1 1 1 2 3 3 4 7
6 9 8 8 7 8 8 7 6 4 5 4 4 4 4 4 4 3 2 1 3 2 2 1 2 3 1 2 2 3 3 3 2 1 1 1 2 4
3 4 2 3 2 2 1 2 2 3 3 3 3 2 1 1 2 4 4 3 2 1 0 1 1 3 4 4 3 3 2 4 3 2 1 1 2 4
7 7 8 7 6 8 8 5 4 2 2 3 3 3 3 3 3 4 3 4 1 0 1 1 3 6 2 2 2 2 4 6 5 5 3 3 2 1
11 12 11 12 11 11 6 3 3 3 2 2 2 2 3 3 2 2 3 2 1 1 3 4 3 0 1 3 3 3 3 3 5 7 7 7 5 3
8 9 8 7 9 8 14 10 4 3 1 2 1 1 1 1 3 2 3 4 2 3 2 4 3 1 2 3 4 2 4 4 4 4 4 11 10 6
Wind_Direction
224 240 251 284 304 311 208 141 143 23 307 317 337 253 252 239 236 191 212 223 229 234 229 233 237 238 234 240 241 238 241 242 243 242 241 240 240 245
217 232 251 264 274 324 284 142 152 155 206 229 280 297 308 285 228 207 223 227 231 237 235 239 243 246 235 240 243 240 236 239 242 239 240 242 239 242
220 207 233 246 257 269 4 0 310 166 203 297 242 229 275 249 265 244 256 255 243 237 237 238 247 252 246 233 245 245 243 242 244 241 241 240 235 235
222 225 222 226 247 253 224 261 250 261 171 253 276 298 294 290 271 280 276 261 243 254 252 249 254 255 251 231 240 248 242 239 242 244 245 246 237 235
209 209 227 214 224 242 247 254 258 267 215 202 272 267 268 268 295 283 264 267 263 267 279 274 268 258 261 243 243 247 252 248 246 255 258 255 251 245
218 222 217 216 215 218 224 236 250 270 274 268 269 264 251 299 240 252 321 333 305 305 293 300 329 299 273 258 257 258 262 259 254 252 253 256 250 251
225 220 224 218 208 206 205 221 222 236 246 259 274 289 289 303 320 296 298 299 301 281 325 312 329 311 305 291 266 265 260 262 263 271 271 270 266 264
223 233 230 230 235 229 225 215 198 205 222 209 234 248 259 255 252 267 278 289 305 273 340 301 303 301 304 305 326 330 331 339 333 325 300 287 280 277
216 219 230 237 222 229 235 237 241 237 234 233 244 253 265 244 257 265 261 249 259 275 286 294 243 287 288 289 319 18 38 40 41 29 337 302 306 302
208 211 219 227 222 216 233 243 241 238 233 226 229 253 249 254 238 256 259 250 258 268 203 257 240 275 290 308 37 50 62 53 30 21 21 9 7 342
217 215 215 220 219 215 217 232 242 248 238 234 231 226 233 244 248 82 268 275 286 255 246 205 270 281 261 55 359 48 44 38 25 31 16 16 353 340
223 221 210 206 203 221 232 243 248 249 220 243 250 252 246 251 249 215 240 221 246 277 259 159 289 16 343 345 16 29 20 27 20 23 16 4 349 355
221 222 224 214 224 228 217 228 232 242 226 228 242 254 270 267 260 203 205 193 213 239 223 173 213 37 17 303 304 25 40 5 23 4 1 353 10 358
222 224 220 209 219 230 230 232 240 196 188 206 236 257 252 254 252 239 236 238 224 243 258 189 202 152 151 321 306 329 19 47 37 11 358 350 352 347
224 222 204 205 215 235 241 235 201 209 221 218 228 236 233 213 263 297 285 270 267 246 242 220 163 154 138 184 219 13 2 359 30 11 358 0 347 340
228 195 184 181 192 204 175 201 209 202 198 205 205 210 195 267 278 227 259 275 278 302 356 140 143 137 157 167 130 131 21 356 353 360 337 333 345 351
205 219 200 205 213 219 211 188 200 190 189 179 174 180 235 239 261 238 234 252 190 211 331 67 55 66 54 135 118 158 150 115 23 337 352 347 353 5
181 200 214 220 225 220 204 203 193 194 194 158 178 201 223 222 243 259 195 169 181 285 100 128 128 113 33 14 59 159 118 141 169 356 345 330 343 11
188 203 204 204 215 216 217 196 175 167 137 167 184 200 213 225 216 233 232 107 96 78 70 73 78 119 92 269 320 33 158 189 174 22 330 329 318 324
156 154 155 37 351 54 52 148 129 179 164 153 168 170 82 70 85 88 79 101 104 138 54 4 97 122 138 191 219 217 229 169 170 169 225 282 286 320
111 99 101 87 72 74 24 328 13 359 119 124 106 102 90 92 76 97 104 99 102 355 321 272 242 190 188 107 103 229 238 252 199 170 179 158 198 311
147 141 137 136 138 106 135 67 359 318 334 48 61 89 81 99 101 113 98 77 5 309 284 259 265 260 142 184 242 208 216 215 247 255 225 189 170 215
138 140 152 163 163 174 123 126 145 238 251 66 273 232 176 206 224 170 111 89 45 2 14 327 341 311 271 236 223 214 215 194 186 213 249 229 231 232